KANOPUS-V 3

导读

KANOPUS-V 3是由独联体(CIS)发射的遥感卫星,于2018年2月1日8时成功进入预定轨道。该卫星属于KANOPUS-V系列,主要承担地球观测任务,可获取高分辨率地表影像,服务于自然资源监测、灾害预警评估、环境变化研究等领域,助力区域生态管理与地理信息更新,延续了该系列卫星的观测效能,为航天遥感应用持续提供数据支撑。

基本信息
目录编号:
43180
目录名称:
KANOPUS-V 3
国际标识:
2018-014A
轨道中心:
EARTH
卫星名称:
KANOPUS-V 3
卫星全名:
--
卫星状态:
在轨 (已飞行3145 天)
发射日期:
2018-02-01 UTC
国别 :
俄罗斯(独联体) (CIS)
星等 :
--
该卫星已列入 空间交会检测服务 Space Conjunction Data Service (SCDS) ,当前飞行风险评估等级: 无高风险
轨道信息
数据来源 国际轨道数据
星历时间: 2026-09-12T13:10:45+0800
3小时前
查看轨道信息
半长轴: 6876.504km
偏心率: 0.000192
轨道倾角: 97.348°
近地点辐角 87.054°
升交点赤经 158.894°
平近点角 273.092°
近地点: 497.046km
远地点: 499.688km
周期: 94.583分钟
每日圈数: 15.224788
详细信息
使用方式:
暂无
2D轨道图
3D轨道图
轨道高度分析图
轨道倾角分析图
轨道综合分析图
查看轨道综合分析图
交会数据列表
事件ID 空间交会对象 最接近时刻(TCA) 交会距离 交会风险概率(CRP) 交会风险指数(CRI) 操作
CDM_260914-180404-318006-673821
2026-09-14T
18:04:14+0000
1.944 km
极远距离
3.108274E-6 低风险 0.45
CDM_260913-134004-318006-672825
2026-09-13T
13:40:42+0000
2.054 km
极远距离
2.698604E-6 低风险 0.44
CDM_260913-144503-400604-318022
2026-09-13T
14:45:59+0000
2.187 km
极远距离
2.247507E-6 低风险 0.42
CDM_260914-193804-318006-673821
2026-09-14T
19:38:55+0000
2.793 km
极远距离
1.481923E-6 低风险 0.38
与全量物体交会距离演化趋势
与全量物体交会风险概率演化趋势